This is the latest recevied weather packets stored in our database for station/object vk4zu-13. If no packets are shown the sender has not sent any weather packets the latest 10 day(s).
| Time | Temp. | Humidity | Pressure | Rain* | Wind** | Luminosity | Snow |
|---|---|---|---|---|---|---|---|
| 1777523257 | 20° C | 86% | 1024.9 hPa | 0.51 mm | - | 111 W/m² | - |
| 1777523189 | 20° C | 85% | 1024.9 hPa | 0.51 mm | - | 116 W/m² | - |
| 1777523120 | 20° C | 85% | 1024.9 hPa | 0.51 mm | - | 118 W/m² | - |
| 1777523059 | 20° C | 85% | 1024.8 hPa | 0.51 mm | - | 118 W/m² | - |
| 1777522999 | 20° C | 85% | 1025 hPa | 0.51 mm | - | 109 W/m² | - |
| 1777522934 | 20.56° C | 85% | 1024.9 hPa | 0.51 mm | - | 102 W/m² | - |
| 1777522878 | 20.56° C | 85% | 1025 hPa | 0.51 mm | - | 120 W/m² | - |
| 1777522807 | 20.56° C | 84% | 1024.9 hPa | 0.51 mm | - | 118 W/m² | - |
| 1777522737 | 20.56° C | 85% | 1025 hPa | 0.51 mm | - | 118 W/m² | - |
| 1777522678 | 20.56° C | 85% | 1025 hPa | 0.51 mm | - | 113 W/m² | - |
| 1777522619 | 20.56° C | 85% | 1025 hPa | 0.51 mm | - | 116 W/m² | - |
| 1777522555 | 20.56° C | 86% | 1024.9 hPa | 0.51 mm | - | 123 W/m² | - |
| 1777522494 | 20.56° C | 85% | 1025 hPa | 0.51 mm | - | 190 W/m² | - |
| 1777522444 | 20.56° C | 84% | 1025 hPa | 0.51 mm | - | 190 W/m² | - |
| 1777522356 | 21.11° C | 84% | 1025 hPa | 0.51 mm | - | 148 W/m² | - |
| 1777522293 | 21.11° C | 83% | 1025 hPa | 0.51 mm | - | 146 W/m² | - |
| 1777522229 | 21.11° C | 84% | 1025 hPa | 0.25 mm | - | 120 W/m² | - |
| 1777522099 | 21.67° C | 82% | 1025 hPa | 0.25 mm | - | 104 W/m² | - |
| 1777522032 | 21.67° C | 81% | 1025 hPa | 0.25 mm | - | 88 W/m² | - |
| 1777521971 | 21.67° C | 81% | 1025.2 hPa | 0 mm | - | 88 W/m² | - |
| 1777521916 | 22.22° C | 79% | 1025 hPa | 0 mm | - | 65 W/m² | - |
| 1777521842 | 22.22° C | 78% | 1025 hPa | 0 mm | - | 60 W/m² | - |
| 1777521777 | 22.78° C | 76% | 1025 hPa | 0 mm | - | 56 W/m² | - |
| 1777521715 | 22.78° C | 76% | 1025 hPa | 0 mm | - | 54 W/m² | - |
| 1777521657 | 22.78° C | 75% | 1024.9 hPa | 0 mm | - | 63 W/m² | - |
* Rain latest hour (hover to see other rain measurements)
** Current wind speed in m/s (hover to see current wind gust speed)